Regional Weather Roundup
Issued by NWS Grand Forks, ND

Home | Current Version | Previous Version | Graphics & Text | Print | Product List | Glossary On
Versions: 1 2 3 4 5 6 7 8 9 10 11 12 13 14 15 16 17 18 19 20 21 22 23 24 25 26 27 28 29 30 31 32 33 34 35 36 37 38 39 40 41 42 43 44 45 46 47 48 49 50
410
ASUS43 KFGF 050610
RWRFGF
PRAIRIE TO PINES  WEATHER ROUNDUP
NATIONAL WEATHER SERVICE EASTERN NORTH DAKOTA/GRAND FORKS ND
1200 AM CST MON DEC 05 2016

 **SATELLITE DATA USED TO AUGMENT SKY COVER AT AUTOMATED STATIONS**
 *****  WEATHER ACROSS EASTERN NORTH DAKOTA  *****

CITY           SKY/WX    TMP DP  RH WIND       PRES   REMARKS
GRAND FORKS    CLOUDY    28  24  85 NW7       29.69R WCI  21
6HR MIN TEMP:  28; 6HR MAX TEMP:  32; 6HR PCP: TRACE;

GRAND FRKS AFB CLOUDY    26  24  90 W7        29.70R WCI  19
GRAND FRKS NWS   N/A     28 N/A N/A W10         N/A  WCI  19
DEVILS LAKE    FOG       23  22  96 CALM      29.66R VSB 1/4
6HR MIN TEMP:  23; 6HR MAX TEMP:  25; 6HR PCP: TRACE;

FARGO          CLEAR     24  20  84 W6        29.71R WCI  17
WAHPETON ARPT  CLEAR     30  27  86 CALM      29.73R
$$

 ***** WEATHER ACROSS CENTRAL AND WESTERN NORTH DAKOTA  *****

CITY           SKY/WX    TMP DP  RH WIND       PRES   REMARKS
BISMARCK       CLOUDY    18  16  92 NE8       29.62F WCI   8
6HR MIN TEMP:  14; 6HR MAX TEMP:  24;

MINOT          CLOUDY    15  12  88 CALM      29.59R
6HR MIN TEMP:  13; 6HR MAX TEMP:  23;

JAMESTOWN      CLEAR     20  18  92 SE3       29.66S
6HR MIN TEMP:  20; 6HR MAX TEMP:  28;

MINOT AFB      CLOUDY    13  11  90 VRB1      29.58S
GARRISON         N/A     19  16  88 E3        29.58F
WILLISTON      CLOUDY    25  21  85 CALM      29.50F
6HR MIN TEMP:  20; 6HR MAX TEMP:  27;

DICKINSON      CLOUDY    25  21  85 E8        29.50F WCI  16
6HR MIN TEMP:  18; 6HR MAX TEMP:  30;

HETTINGER      CLEAR     22  16  78 E3        29.54F
6HR MIN TEMP:  21; 6HR MAX TEMP:  32;

$$

 *****  OTHER AIRPORT OBSERVATIONS IN OUR AREA  *****

CITY           SKY/WX    TMP DP  RH WIND       PRES   REMARKS
WALHALLA         N/A     27  27 100 NW6       29.67R WCI  20
GRAFTON AIRPOR CLOUDY    28  28 100 SW10      29.70R WCI  19
VALLEY CITY AR FAIR      19  19 100 S6        29.70R WCI  11
CANDO          FOG       21  21 100 CALM      29.66S VSB 1/2
CAVALIER APRT    N/A     28  27  93 W7        29.67R WCI  21
GWINNER          N/A     28  28 100 SW7       29.70S WCI  21
SHEYENNE NWR     N/A     23  20  88 W3        29.95S
ROLLA          FOG       18  18 100 CALM      29.63S VSB 1/4
 ***** THE ABOVE OBSERVATIONS ARE NON NWS ARE NOT QUALITY
       CONTROLLED AND MAY MIS-REPORT RAIN FOR SNOW...
$$

  *****  WEATHER ACROSS NORTHERN MINNESOTA  *****

CITY           SKY/WX    TMP DP  RH WIND       PRES   REMARKS
FLAG ISLAND    LGT SNOW  30  28  93 SW7       29.58S WCI  23
WARROAD        CLOUDY    30  27  86 W9        29.62R WCI  22
ROSEAU         CLOUDY    30  27  86 W7        29.62S WCI  23
HALLOCK        CLOUDY    30  28  93 W8        29.66R WCI  23
THF RVR FALLS  CLOUDY    28  26  92 W12       29.67S WCI  18
6HR MIN TEMP:  28; 6HR MAX TEMP:  30;

BAUDETTE       LGT SNOW  30  27  88 W7        29.61R FOG     WCI  23
6HR MIN TEMP:  29; 6HR MAX TEMP:  32; 6HR PCP: TRACE;

WASKISH        CLOUDY    30  28  93 W12       29.64R WCI  21
CROOKSTON      CLOUDY    28  27  93 W6        29.70S WCI  22
GREENBUSH NDAW   N/A     28  28 100 W7          N/A  WCI  21
$$
  *****  WEATHER ACROSS CENTRAL AND WEST MINNESOTA  *****

CITY           SKY/WX    TMP DP  RH WIND       PRES   REMARKS
FOSSTON        CLOUDY    27  25  93 W8        29.68R WCI  18
BEMIDJI        CLOUDY    28  26  91 W10       29.66R WCI  19
PARK RAPIDS    CLOUDY    30  25  81 W6        29.67R WCI  24
6HR MIN TEMP:  30; 6HR MAX TEMP:  32;

ELBOW LAKE     FAIR      25  25  99 CALM      29.73R
WADENA         CLEAR     27  27 100 SW5       29.68S WCI  21
DETROIT LAKES  PTCLDY    30  28  93 W3        29.69R
MOORHEAD       CLEAR     27  25  93 W3        29.72R
FERGUS FALLS   CLEAR     27  27 100 CALM      29.75S
MORRIS MN      CLEAR     28  27  93 CALM      29.73R
STAPLES        CLEAR     27  27 100 SW5       29.69S WCI  21
$$
  *****  WEATHER ELSEWHERE ACROSS MINNESOTA  *****

CITY           SKY/WX    TMP DP  RH WIND       PRES   REMARKS
DULUTH         CLOUDY    31  29  92 W12       29.64S WCI  22
6HR MIN TEMP:  31; 6HR MAX TEMP:  33; 6HR PCP: TRACE;

INTRNTL FALLS  CLOUDY    30  27  88 SW7       29.61S FOG     WCI  23
6HR MIN TEMP:  30; 6HR MAX TEMP:  31; 6HR PCP:  0.04;

ELY            CLOUDY    30  30 100 SW3       29.60S
CLOQUET        CLOUDY    32  28  86 SW7       29.67R
WHEATON        NOT AVBL
BRAINERD       CLOUDY    33  29  85 W8        29.70R
6HR MIN TEMP:  32; 6HR MAX TEMP:  33;

HIBBING        CLOUDY    29  27  92 VRB5      29.64R WCI  24
6HR MIN TEMP:  29; 6HR MAX TEMP:  30; 6HR PCP:  0.01;

ALEXANDRIA     CLEAR     27  27 100 SW8       29.72R WCI  19
6HR MIN TEMP:  27; 6HR MAX TEMP:  34;

SAINT CLOUD    CLEAR     29  28  96 SW8       29.74R WCI  21
6HR MIN TEMP:  29; 6HR MAX TEMP:  34;

MINNEAPOLIS    CLEAR     33  28  81 SW7       29.79R
6HR MIN TEMP:  33; 6HR MAX TEMP:  38;

$$

  *****  WEATHER ACROSS SOUTH DAKOTA  *****

CITY           SKY/WX    TMP DP  RH WIND       PRES   REMARKS
SIOUX FALLS    MOCLDY    35  28  75 S3        29.77S
6HR MIN TEMP:  28; 6HR MAX TEMP:  37;

BROOKINGS      PTCLDY    30  28  92 S9        29.74S WCI  22
WATERTOWN      CLOUDY    26  24  92 S5        29.72R WCI  20
6HR MIN TEMP:  25; 6HR MAX TEMP:  31;

HURON          PTCLDY    31  27  85 SE10      29.70F WCI  22
6HR MIN TEMP:  28; 6HR MAX TEMP:  34;

SISSETON         N/A     34  27  75 W9        29.70S
ABERDEEN       CLEAR     27  24  89 S8        29.71R WCI  19
6HR MIN TEMP:  23; 6HR MAX TEMP:  29;

MITCHELL       MOCLDY    33  28  81 SE9       29.72F
PIERRE         CLOUDY    32  25  75 E7        29.60F
6HR MIN TEMP:  25; 6HR MAX TEMP:  34;

MOBRIDGE       CLOUDY    32  26  78 SE12      29.58F WCI  23
RAPID CITY     MOCLDY    36  20  52 SW7       29.51F
6HR MIN TEMP:  32; 6HR MAX TEMP:  37;

$$

  *****  SOME WEATHER IN NEARBY STATES *****

CITY           SKY/WX    TMP DP  RH WIND       PRES   REMARKS
GLASGOW MT     MOCLDY    31  30  96 W8        29.50R WCI  23
6HR MIN TEMP:  30; 6HR MAX TEMP:  34; 6HR PCP:  0.04;

GREAT FALLS MT FLURRIES  21  16  81 N10       29.72R WCI  10
6HR MIN TEMP:  21; 6HR MAX TEMP:  31; 6HR PCP: TRACE;

CHEYENNE WY    CLOUDY    40  18  41 SW12G18   29.67F
6HR MIN TEMP:  38; 6HR MAX TEMP:  42;

SCOTTSBLUFF NE CLOUDY    42  19  39 W9        29.64F
6HR MIN TEMP:  29; 6HR MAX TEMP:  45;

OMAHA NE       CLEAR     32  27  81 SE10      29.88F WCI  24
6HR MIN TEMP:  29; 6HR MAX TEMP:  36;

DES MOINES IA  CLEAR     31  29  92 S7        29.92F FOG     WCI  24
6HR MIN TEMP:  31; 6HR MAX TEMP:  36;

DAVENPORT IA   CLOUDY    34  31  88 W14       29.97R WCI  25
6HR MIN TEMP:  32; 6HR MAX TEMP:  34;

CHICAGO IL     CLOUDY    32  31  96 W10       29.92R FOG     WCI  24
6HR MIN TEMP:  27; 6HR MAX TEMP:  32; 6HR PCP:  0.01;

EAU CLAIRE WI  CLOUDY    35  31  85 SW8       29.78R
6HR MIN TEMP:  33; 6HR MAX TEMP:  35; 6HR PCP:  0.01;

LA CROSSE WI   CLOUDY    36  33  89 S7        29.84S
6HR MIN TEMP:  35; 6HR MAX TEMP:  37;

$$

  *****  SOME NATIONAL WEATHER *****

CITY           SKY/WX    TMP DP  RH WIND       PRES   REMARKS
LA GUARDIA NY  CLOUDY    41  24  51 E6        30.11F
6HR MIN TEMP:  41; 6HR MAX TEMP:  45;

RALEIGH NC     LGT RAIN  43  41  93 CALM      30.05F FOG
6HR MIN TEMP:  42; 6HR MAX TEMP:  43; 6HR PCP:  0.17;

ATLANTA GA     LGT RAIN  44  43  96 E12       30.00F
6HR MIN TEMP:  44; 6HR MAX TEMP:  45; 6HR PCP:  0.22;

NEW ORLEANS LA MOCLDY    62  62 100 N5        29.89F
6HR MIN TEMP:  61; 6HR MAX TEMP:  62; 6HR PCP:  0.24;

OKLAHOMA CITY  CLOUDY    35  34  96 S3        30.03F
6HR MIN TEMP:  33; 6HR MAX TEMP:  47;

ALBUQUERQUE NM CLOUDY    36  12  37 W3        30.06S
6HR MIN TEMP:  34; 6HR MAX TEMP:  45;

SALT LAKE CITY CLOUDY    44  22  41 SE8       29.77F
6HR MIN TEMP:  40; 6HR MAX TEMP:  44;

LOS ANGELES CA PTCLDY    56  55  97 CALM      29.99S
6HR MIN TEMP:  56; 6HR MAX TEMP:  64;

BOISE ID       CLEAR   C1F1C2F2C3F3C4F4C5F5C6F6C7F7C8F8C9F9CaFaCbFbCcFcCd!



USA.gov is the U.S. government's official web portal to all federal, state and local government web resources and services.